Location: Hoyos del Collado
(40.3594°N, 5.2003°W)
Time: 18:28:15
(UTC+00:00)

ARIANE 6 FM1 Upper Stage - Visible Passes

Search period start: 14 June 2025 00:00
Search period end: 24 June 2025 00:00
Orbit: 531 x 610 km, 62.0° (Epoch: 13 June)

Date Brightness Start Highest point End Pass type
(mag) Time Alt. Az. Time Alt. Az. Time Alt. Az.
14 Jun 2.8 21:09:26 10° NNW 21:13:33 68° NE 21:16:17 21° SE visible
14 Jun 5.1 22:50:32 10° W 22:52:11 12° WSW 22:52:23 12° WSW visible
15 Jun 2.7 21:11:04 10° NW 21:15:14 78° SW 21:18:01 21° SSE visible
16 Jun 3.3 21:12:50 10° NW 21:16:51 49° WSW 21:19:49 17° S visible
17 Jun 4.1 21:14:44 10° WNW 21:18:25 31° WSW 21:21:41 13° S visible
18 Jun 4.8 21:16:52 10° WNW 21:19:57 20° WSW 21:23:04 10° SSW visible
19 Jun 5.2 21:19:30 10° W 21:21:25 13° WSW 21:23:21 10° SW visible
